This demonstration page uses our WeatherBlox Daily Observations layout. Learn more.

Left ArrowRight Arrow

38.20091, -84.87328

Hourly Observations for January 19, 2020

Temp ( °F °C ) Dew Point ( °F °C ) Humidity (%) Winds ( mph kmh ) Pressure ( in mb ) Visibility ( mi km ) Precip ( " mm )
12:53 am 00:53 Cloudy 32 0 23 -5 69 69 W 13 20 30.08 1019 10 16 0.00 0.00
1:53 am 01:53 Cloudy 30 -1.1 21 -6.1 69 69 WNW 10 17 30.08 1019 10 16 0.00 0.00
2:53 am 02:53 Cloudy 30 -1.1 21 -6.1 69 69 W 12 19 30.09 1019 10 16 0.00 0.00
3:53 am 03:53 Cloudy 29 -1.7 19 -7.2 66 66 W 9 15 30.10 1019 10 16 0.00 0.00
4:53 am 04:53 Cloudy 29 -1.7 18 -7.8 63 63 W 10 17 30.11 1020 10 16 0.00 0.00
5:50 am 05:50 Cloudy 28 -2 18 -8 64 64 W 14 22 30.17 1022 10 16 0.00 0.00
5:53 am 05:53 Cloudy 28 -2.2 16 -8.9 60 60 W 15 24 30.13 1020 10 16 0.00 0.00
6:20 am 06:20 Cloudy 27 -2.8 16 -8.9 63 63 WNW 13 20 30.19 1022 10 16 0.00 0.00
6:53 am 06:53 Cloudy 24 -4.4 13 -10.6 62 62 WNW 14 22 30.18 1022 10 16 0.00 0.00
7:12 am 07:12 Cloudy 23 -5 12 -11.1 63 63 WNW 10 17 30.23 1024 10 16 0.00 0.00
7:53 am 07:53 Cloudy 22 -5.6 12 -11.1 66 66 NW 10 17 30.20 1023 10 16 0.00 0.00
8:53 am 08:53 Cloudy 21 -6.1 12 -11.1 68 68 WNW 8 13 30.23 1024 10 16 0.00 0.00
9:27 am 09:27 Cloudy 22 -5.6 13 -10.6 68 68 NW 10 17 30.29 1026 10 16 0.00 0.00
9:51 am 09:51 Cloudy with Light Snow 21 -6 12 -11 68 68 WNW 9 15 30.29 1026 5 8 0.00 0.00
9:53 am 09:53 Cloudy with Light Snow 22 -5.6 13 -10.6 68 68 VRB 6 9 30.26 1025 4 6 0.00 0.00
10:16 am 10:16 Cloudy with Light Snow 23 -5 13 -10.6 65 65 NW 8 13 30.30 1026 7 11 0.00 0.00
10:53 am 10:53 Cloudy 23 -5 12 -11.1 63 63 W 12 19 30.28 1025 10 16 0.00 0.00
11:53 am 11:53 Mostly Cloudy 26 -3.3 12 -11.1 55 55 W 9 15 30.28 1025 10 16 0.00 0.00
12:16 pm 12:16 Cloudy 25 -3.9 12 -11.1 58 58 W 9 15 30.31 1027 10 16 0.00 0.00
12:33 pm 12:33 Cloudy 25 -3.9 13 -10.6 60 60 W 10 17 30.30 1026 10 16 0.00 0.00
12:53 pm 12:53 Mostly Cloudy 24 -4.4 11 -11.7 57 57 WNW 13 20 30.28 1025 10 16 0.00 0.00
1:26 pm 13:26 Partly Cloudy 24 -4.4 11 -11.7 57 57 W 15 24 30.32 1027 10 16 0.00 0.00
1:37 pm 13:37 Mostly Cloudy 24 -4.4 11 -11.7 57 57 WNW 7 11 30.32 1027 10 16 0.00 0.00
1:44 pm 13:44 Mostly Cloudy 25 -3.9 12 -11.1 58 58 WNW 13 20 30.31 1027 10 16 0.00 0.00
1:53 pm 13:53 Mostly Cloudy 25 -3.9 10 -12.2 53 53 WNW 8 13 30.28 1026 10 16 0.00 0.00
2:53 pm 14:53 Mostly Cloudy 26 -3.3 11 -11.7 53 53 undefined N/A 30.29 1026 10 16 0.00 0.00
3:53 pm 15:53 Cloudy 24 -4.4 11 -11.7 57 57 NW 12 19 30.32 1027 10 16 0.00 0.00
4:48 pm 16:48 Cloudy 21 -6 10 -12 63 63 NW 12 19 30.38 1029 10 16 0.00 0.00
4:53 pm 16:53 Cloudy 22 -5.6 11 -11.7 63 63 NW 12 19 30.35 1028 10 16 0.00 0.00
5:53 pm 17:53 Cloudy 20 -6.7 9 -12.8 62 62 NW 12 19 30.39 1029 10 16 0.00 0.00
6:53 pm 18:53 Cloudy 19 -7.2 10 -12.2 68 68 WNW 7 11 30.42 1030 10 16 0.00 0.00
7:53 pm 19:53 Cloudy 18 -7.8 9 -12.8 68 68 NNW 13 20 30.45 1031 10 16 0.00 0.00
8:53 pm 20:53 Cloudy 17 -8.3 9 -12.8 70 70 WNW 9 15 30.45 1031 10 16 0.00 0.00
9:53 pm 21:53 Cloudy 17 -8.3 9 -12.8 70 70 NNW 10 17 30.46 1032 10 16 0.00 0.00
10:53 pm 22:53 Cloudy 17 -8.3 9 -12.8 70 70 NNW 9 15 30.47 1032 10 16 0.00 0.00
11:53 pm 23:53 Cloudy 16 -8.9 9 -12.8 74 74 NW 7 11 30.48 1032 10 16 0.00 0.00

Powered by AerisWeather